Location: Cudham
(51.3000°N, 0.0667°E)
Time: 06:47:00
(UTC+00:00)

Meteor 2-8 Rocket - Pass Details

Date: 19 May 2025
Orbit: 937 x 957 km, 82.5° (Epoch: 18 June)

Event Time Altitude Azimuth Distance (km) Brightness Sun altitude
Rises 23:12:52 0° 349° (N) 3,650 9.3 -18.1°
Reaches altitude 10° 23:15:23 10° 351° (N) 2,701 8.1 -18.2°
Maximum altitude 23:21:35 79° 78° (ENE) 980 4.5 -18.3°
Enters shadow 23:24:50 30° 162° (SSE) 1,643 5.1 -18.4°
